星链-5536 (STARLINK-5536 )

导读 | 星芒AI

STARLINK-5536 是 SpaceX Starlink 项目中的一颗低轨通信卫星,属于第 11 批组网卫星(Batch 11B)。该卫星于 2022 年 3 月 30 日由猎鹰 9 号火箭从卡纳维拉尔角发射升空,部署在约 540 公里的轨道高度。Starlink 卫星旨在为全球提供高速互联网服务,尤其服务于偏远地区。STARLINK-5536 采用先进的星间激光通信技术,提升数据传输效率,并具备自动避障功能,以减少与其他卫星或太空碎片的碰撞风险。

基本信息
目录编号:
57062
目录名称:
STARLINK-5536
国际标识:
2023-088Q
轨道中心:
EARTH
卫星名称:
星链-5536
卫星全名:
星链-5536 (STARLINK-5536 )
卫星状态:
在轨 (已飞行866 天)
发射日期:
2023-06-22 UTC
国别 :
美国 (US)
星等 :
--
轨道信息
数据来源 国际轨道数据 AOE轨道数据
星历时间 2025-11-03T23:40:01+0800
1天前
查看轨道信息
2025-11-02T09:00:00+0800
2天前
查看轨道信息
半长轴 6937.21km 6937.198km
偏心率 0.0001295 0.0001342
轨道倾角 43.005° 43.003°
近地点辐角 272.048° 274.797°
升交点赤经 59.028° 67.782°
平近点角 88.021° 0.454°
近地点 558.176km 558.132km
远地点 559.974km 559.994km
周期 95.838分钟 95.838分钟
每日圈数 15.025382 15.025423
详细信息
固有亮度:
5
最大亮度:
2.4
卫星平台:
Starlink v1.5
覆盖范围:
全球
运营商:
太空探索技术公司
运营商所在国:
美国
制造商(研发单位):
太空探索技术公司
制造商所在国:
美国
使用方式:
暂无
卫星简介
星链(Starlink)计划是由太空探索技术公司(SpaceX)提出的一个巨型低轨卫星互联网星座项目,计划在2019年至2024年间在太空搭建由约1.2万颗卫星组成的“星链”网络,其中1584颗将部署在地球上空550千米处的近地轨道,并从2020年开始工作。该卫星仍在工作。
2D轨道图
3D轨道图
轨道高度分析图
轨道倾角分析图
轨道综合分析图
查看轨道综合分析图